Location: Kershaw
(34.5481°N, 80.5823°W)
Time: 19:21:18
(UTC+00:00)

deb Explorer IX - Pass Details

Date: 10 October 2022
Orbit: 533 x 1057 km, 38.8° (Epoch: 06 December)

Event Time Altitude Azimuth Distance (km) Brightness Sun altitude
Exits shadow 10:08:23 29° 289° (WNW) 1,092 ? -16.3°
Maximum altitude 10:10:22 53° 353° (N) 749 ? -15.9°
Drops below altitude 10° 10:15:05 10° 71° (ENE) 2,108 ? -15.0°
Sets 10:17:42 0° 75° (ENE) 3,116 ? -14.4°
